Temperature
17 17 17 17 17 17 17 17 17 18 18 18 18 18 18 18 18 18 18 18 18 18 18 18 18 18 18 18 18 18 18 18 18 18 18 18 18 18 18 18 18 18 18
17 17 17 17 17 17 17 17 17 17 17 18 18 18 18 18 18 18 18 18 18 18 18 18 18 18 18 18 18 18 18 18 18 18 18 18 18 18 18 18 18 18 18
17 17 17 17 17 17 17 17 17 17 17 17 18 18 18 18 18 18 18 18 18 18 18 18 18 18 18 18 18 18 18 18 18 18 18 17 17 18 18 18 18 18 18
17 16 16 17 17 17 17 17 17 17 17 17 17 17 18 18 18 18 18 18 18 18 18 18 18 18 18 18 18 18 18 18 18 18 17 17 17 17 18 18 18 18 18
17 16 16 17 17 17 17 17 17 17 17 17 17 17 17 18 18 18 18 18 18 18 17 17 17 18 17 17 18 17 18 18 18 17 17 17 17 17 17 17 17 17 17
17 16 16 17 17 17 17 17 17 17 17 17 17 17 17 17 17 17 17 17 17 17 17 17 17 17 17 17 17 17 17 17 17 17 17 17 17 17 17 17 17 17 17
17 16 16 17 17 17 17 17 17 17 17 17 17 17 17 17 17 17 17 17 17 17 17 17 17 17 17 17 17 17 17 17 17 17 17 17 17 17 17 17 17 17 17
17 16 16 17 17 17 17 17 17 17 17 17 17 17 17 17 17 17 17 17 17 17 17 17 17 17 17 17 17 17 17 17 16 16 16 16 17 17 17 17 17 17 17
17 16 16 16 16 17 17 17 17 17 17 17 17 17 17 17 17 17 17 17 17 17 17 17 17 17 17 17 17 17 17 16 16 16 16 16 17 17 17 17 17 17 17
17 17 16 16 16 16 16 17 17 17 17 17 17 17 17 17 17 17 17 17 17 17 17 17 17 17 17 17 17 17 16 16 16 16 16 16 16 16 16 16 17 17 17
17 17 17 17 16 16 16 16 16 16 16 16 16 17 16 16 16 16 16 17 17 17 17 17 16 16 16 16 16 16 16 16 16 16 16 16 16 16 16 16 16 16 16
17 17 17 17 17 16 16 16 16 16 16 16 16 16 16 16 16 16 16 16 16 16 16 16 16 16 16 16 16 16 16 16 16 15 15 16 16 16 16 16 16 16 16
18 17 17 17 17 17 16 16 16 16 16 16 16 16 16 16 16 16 16 16 16 16 16 16 16 16 16 16 16 16 16 15 15 15 15 16 16 16 16 16 16 16 16
17 17 17 17 17 17 16 16 16 16 16 16 16 16 16 16 16 16 16 16 16 16 15 15 16 16 16 16 15 15 15 15 15 15 15 15 15 15 15 15 15 15 15
17 17 17 17 17 17 16 16 16 16 16 16 16 16 16 16 16 16 16 16 15 15 15 15 15 15 15 15 15 15 15 15 15 15 15 15 15 15 15 15 15 15 15
18 18 17 17 17 17 16 16 16 16 16 16 16 16 16 16 15 15 15 15 15 15 15 15 15 15 15 15 15 15 15 15 15 15 15 15 15 15 15 15 15 15 15
18 18 17 17 17 17 16 16 16 16 16 16 16 16 15 15 15 15 15 15 15 15 15 15 15 15 15 15 15 15 15 15 15 15 15 14 14 15 15 15 15 15 14
18 18 17 17 17 17 16 16 16 16 16 15 15 15 15 15 15 15 15 15 15 15 15 15 15 15 15 15 15 15 14 14 14 14 14 14 14 14 14 15 15 15 14
18 18 17 17 17 17 16 16 16 16 16 15 15 15 15 15 15 15 15 15 14 14 14 14 14 15 14 14 14 14 14 14 14 14 14 14 14 14 14 14 14 14 14
18 18 18 17 17 17 16 16 16 16 16 15 15 15 15 15 15 15 15 14 14 14 14 14 14 14 14 14 14 14 14 14 14 14 14 14 14 14 14 14 14 14 14
18 18 18 17 17 17 16 16 16 16 16 15 15 15 15 15 15 15 14 14 14 14 14 14 14 14 14 14 14 14 14 14 14 14 14 14 14 14 14 14 13 13 13
18 18 18 17 17 17 16 16 16 16 16 15 15 15 15 15 15 15 14 14 14 14 14 14 14 14 14 14 14 14 15 14 13 13 13 13 13 13 13 13 13 13 13
18 18 17 17 17 17 16 16 16 16 16 15 15 15 15 15 15 14 14 14 14 14 14 14 14 14 14 14 14 14 15 15 14 14 13 13 13 13 13 13 13 13 13
18 17 17 17 17 17 16 16 16 16 16 15 15 15 15 15 15 14 14 14 14 14 14 14 14 13 14 13 14 14 14 14 14 14 13 13 13 13 13 13 13 13 13
17 17 17 17 17 17 16 16 16 16 15 15 15 15 15 15 15 14 14 14 14 14 14 14 13 13 13 13 13 13 13 13 14 14 14 13 13 13 13 13 13 13 12
17 17 17 17 17 17 16 16 16 16 15 15 15 15 15 15 15 14 14 14 14 14 14 13 13 13 13 13 13 13 13 13 14 14 14 13 13 13 13 13 13 12 12
Wind_Speed
3 4 5 3 4 5 5 5 6 6 6 6 7 7 8 8 8 9 9 10 10 10 11 11 10 10 11 11 11 11 11 11 10 10 10 10 10 9 8 7 6 8 9
4 4 5 4 5 5 5 5 6 6 6 6 7 7 8 8 9 9 10 10 11 11 11 11 11 11 11 11 11 11 11 10 10 9 9 9 10 9 8 7 6 7 9
4 4 5 5 5 5 6 6 6 6 7 7 7 8 8 9 9 9 9 10 11 11 11 10 10 10 10 11 11 10 10 10 9 8 6 7 9 9 8 8 8 8 8
5 5 6 6 6 6 6 6 6 7 8 8 8 8 9 9 9 9 10 10 10 11 11 10 10 10 10 10 11 11 10 9 8 4 5 7 8 10 8 8 8 7 8
6 6 8 6 6 6 6 5 6 7 8 8 8 9 9 9 9 10 10 10 10 10 11 11 11 10 10 11 11 11 10 9 7 5 8 8 8 10 9 8 7 7 7
6 7 8 6 7 6 6 5 5 6 7 8 8 9 9 9 10 10 10 10 10 11 11 11 11 10 10 10 11 10 9 7 5 7 7 7 8 10 9 7 7 7 7
7 7 8 7 7 7 8 7 6 6 8 8 8 9 9 9 10 10 10 10 10 11 11 11 11 11 11 10 10 10 8 6 7 7 7 8 9 10 8 8 7 7 7
6 6 7 8 7 8 9 9 9 9 9 9 9 9 9 10 10 10 10 10 10 10 10 11 11 11 11 10 10 9 8 5 7 8 8 9 11 10 9 8 8 8 7
6 6 5 6 7 7 9 10 11 11 11 10 10 9 10 10 10 10 10 10 10 10 10 11 11 11 11 10 10 9 9 7 7 7 8 9 10 9 9 9 8 8 7
6 5 5 5 5 6 9 11 11 11 11 11 10 9 9 9 9 9 10 11 10 10 10 10 10 11 11 11 10 9 6 5 7 8 8 10 11 10 10 10 9 8 8
5 4 4 5 6 6 7 8 9 9 9 8 9 8 5 6 7 8 11 11 10 10 11 11 11 10 10 11 9 6 5 6 8 7 8 11 11 10 10 11 11 10 9
5 4 4 4 5 6 6 6 6 6 6 6 6 6 6 6 6 7 11 10 10 10 10 10 9 7 5 7 7 5 6 8 7 8 10 11 9 10 10 11 11 11 10
5 4 4 4 4 5 4 5 5 5 5 5 5 6 5 5 5 6 6 7 7 7 7 7 6 6 7 6 6 7 8 7 7 8 10 11 9 9 10 11 11 11 10
4 4 4 3 4 4 5 4 4 4 4 4 4 5 5 4 4 5 4 5 5 5 5 5 5 7 7 7 8 8 8 7 7 8 11 12 11 10 10 11 11 11 11
5 4 4 3 3 4 4 3 3 3 3 4 4 4 5 4 4 4 4 4 5 5 5 4 5 6 6 7 7 7 7 7 7 7 9 12 12 12 11 11 11 11 11
5 5 5 4 4 4 4 3 3 3 3 4 4 4 4 4 4 4 4 4 4 5 4 5 6 5 5 6 6 7 6 6 6 6 7 9 12 12 12 12 12 12 11
5 5 5 4 4 4 4 4 3 3 3 3 3 4 4 4 4 4 4 4 4 4 5 5 6 5 5 5 6 6 5 5 5 6 6 6 8 11 12 11 11 11 11
5 5 5 4 4 4 3 3 3 3 3 3 3 3 3 3 3 3 3 3 4 4 4 4 4 4 4 4 4 4 4 4 5 5 5 5 5 6 9 10 10 10 10
6 6 6 5 5 4 3 3 2 2 2 2 3 2 2 3 3 3 2 3 4 3 3 3 3 3 4 4 4 4 4 4 4 4 5 5 6 5 6 8 9 9 9
6 6 6 6 5 5 3 3 3 2 2 2 2 2 1 2 2 3 2 3 3 3 3 3 4 3 3 3 4 4 4 3 3 4 4 4 5 5 5 4 5 7 8
7 7 7 7 6 5 4 3 3 2 2 2 2 2 2 2 2 2 2 3 3 3 3 3 3 4 3 2 2 3 3 3 3 3 3 3 4 4 4 4 3 3 5
7 7 7 7 7 6 5 4 3 3 2 2 2 2 3 2 3 3 3 3 3 3 4 4 3 2 2 1 1 1 1 2 2 2 2 2 3 3 3 3 3 3 3
7 7 7 8 7 7 6 4 3 3 3 3 3 3 3 3 3 4 3 3 3 4 4 4 4 4 3 2 1 1 1 0 1 1 1 1 2 1 2 2 2 3 3
7 7 7 7 7 7 6 6 6 5 4 4 3 3 3 4 4 5 4 4 4 4 4 5 4 4 4 3 2 1 2 1 1 1 1 1 1 0 1 1 1 1 2
5 5 6 7 7 7 7 7 6 6 4 3 3 4 4 4 4 5 5 5 4 4 5 5 4 5 4 3 2 2 2 1 3 2 2 1 1 1 1 1 1 0 1
4 4 5 6 7 7 8 8 8 7 5 5 5 4 4 3 4 5 5 5 5 4 5 5 5 6 5 4 4 3 3 3 3 3 2 2 2 1 1 1 1 1 1
Wind_Direction
64 65 63 55 54 57 62 68 75 76 78 81 81 82 85 87 87 90 91 88 85 86 88 88 87 85 86 87 87 89 90 92 94 94 99 98 98 99 102 107 122 115 110
74 78 78 67 65 62 62 72 77 81 84 89 87 85 88 90 88 86 89 89 86 85 87 89 89 85 84 85 87 89 89 89 87 91 98 102 97 96 97 95 84 96 109
87 86 95 76 67 66 69 72 73 78 83 85 87 87 89 91 91 89 89 88 88 87 87 89 90 88 86 85 87 88 88 88 90 93 104 99 99 94 95 96 96 103 108
88 84 76 71 68 68 69 69 73 77 82 83 85 88 89 91 92 92 90 88 88 89 90 90 90 87 86 86 85 84 84 86 88 102 96 84 88 90 89 88 91 102 105
90 84 81 67 68 66 67 70 73 81 82 83 85 88 87 88 91 92 90 91 90 89 90 89 88 86 86 86 85 85 84 85 89 89 80 79 80 82 80 79 81 88 97
94 88 84 71 67 62 60 68 80 88 87 85 87 89 89 88 89 89 89 90 91 90 88 87 86 85 85 87 88 87 86 85 98 82 78 77 79 80 76 75 81 83 87
92 86 87 75 64 58 54 64 84 95 90 86 88 89 88 86 88 88 87 86 89 88 88 88 87 85 84 84 87 85 81 75 79 79 74 71 71 71 70 70 74 80 82
91 85 88 91 69 59 58 66 82 90 89 87 87 90 88 86 86 85 86 86 88 88 88 90 90 89 85 83 84 83 73 56 81 74 69 69 68 67 67 67 70 73 77
90 84 80 89 97 88 71 69 75 82 85 82 83 87 87 86 85 83 84 85 88 89 89 91 91 89 85 82 82 83 76 59 70 71 70 67 66 62 65 68 69 72 77
96 88 83 82 81 90 94 82 79 80 80 81 79 82 87 94 93 90 87 82 85 88 91 92 93 90 86 82 80 84 85 83 69 70 66 70 68 64 66 67 70 75 76
102 95 90 89 87 86 88 94 96 93 88 98 94 92 99 89 88 92 78 81 82 88 91 93 95 96 98 93 85 84 88 78 74 67 65 67 66 66 70 68 68 72 75
117 105 97 94 94 92 90 94 89 87 87 86 87 87 85 83 81 84 91 85 83 93 99 97 103 116 113 99 99 99 80 78 75 72 69 68 67 68 70 71 69 68 70
119 113 107 103 101 99 99 93 87 84 84 84 82 85 85 88 93 88 94 100 93 97 95 107 111 89 86 83 80 80 76 73 70 71 68 66 68 71 73 75 70 67 68
125 118 114 114 114 105 102 97 94 90 85 83 80 77 80 80 81 84 85 84 85 84 82 83 85 88 85 85 84 82 81 75 73 72 67 63 67 71 75 76 72 70 70
135 134 124 123 118 113 104 101 102 92 86 89 84 82 84 83 86 90 89 85 83 87 90 88 87 86 85 82 78 75 74 75 76 76 75 65 61 66 69 71 71 72 73
146 138 132 132 128 126 121 121 109 99 95 87 85 84 86 89 88 90 91 88 83 85 89 96 97 96 88 84 80 74 71 72 72 75 76 77 70 65 66 67 67 69 70
154 146 136 139 141 132 120 114 110 110 103 94 89 87 90 90 94 92 92 93 90 93 97 95 99 99 96 95 88 79 72 67 66 71 70 69 77 77 71 67 65 65 64
170 157 145 154 157 139 130 128 121 116 106 101 103 97 98 102 101 94 97 100 101 99 99 102 106 104 101 94 85 78 76 72 66 67 73 74 69 75 81 72 65 62 63
179 170 162 160 161 151 141 137 132 126 121 113 111 108 107 112 120 116 110 118 118 115 108 110 106 103 100 91 84 77 70 64 59 61 69 71 74 77 83 87 77 65 60
187 182 172 170 175 161 160 156 139 140 144 134 131 137 132 138 137 134 141 146 137 135 126 121 112 108 105 102 93 82 73 70 65 53 56 66 65 67 69 75 85 82 72
194 194 184 186 184 179 178 183 178 171 172 164 165 166 175 179 167 156 161 158 160 155 151 145 131 129 125 118 117 109 99 75 68 64 58 62 68 60 63 66 62 63 82
200 202 198 197 194 193 194 195 195 188 200 185 184 188 192 194 185 184 184 179 178 170 172 164 158 159 151 176 185 170 156 149 107 82 87 70 59 64 51 52 58 56 46
208 207 207 204 198 197 195 195 190 189 203 196 199 201 203 201 199 202 203 200 192 194 187 184 182 187 190 200 249 275 252 156 120 138 101 101 72 62 57 45 51 49 45
212 212 214 208 204 196 193 200 208 217 221 224 215 206 207 206 206 209 210 211 209 209 201 202 199 201 203 204 210 271 305 322 253 186 178 145 102 39 11 30 47 55 48
208 208 215 210 207 201 202 202 219 231 235 229 219 209 213 208 209 208 215 217 219 217 215 213 208 211 214 223 228 220 224 236 255 255 242 232 217 219 258 274 220 160 66
198 197 204 209 208 205 206 206 217 228 227 222 220 216 216 211 209 208 214 220 221 222 217 214 213 215 226 230 237 236 236 242 243 251 254 246 256 250 235 235 234 209 219
Height
1529 1528 1526 1526 1526 1525 1525 1525 1525 1525 1524 1524 1524 1524 1524 1524 1524 1524 1524 1524 1524 1524 1524 1524 1524 1524 1524 1524 1524 1525 1525 1525 1525 1526 1526 1527 1527 1527 1528 1528 1529 1530 1530
1530 1528 1527 1527 1526 1526 1526 1526 1526 1526 1526 1525 1525 1526 1525 1525 1525 1525 1525 1525 1526 1526 1526 1526 1526 1526 1526 1526 1527 1527 1527 1527 1527 1527 1528 1529 1529 1529 1530 1530 1530 1531 1531
1530 1529 1528 1527 1527 1527 1527 1527 1527 1527 1527 1526 1527 1527 1527 1527 1527 1527 1527 1527 1527 1527 1527 1527 1528 1528 1528 1528 1528 1528 1529 1529 1529 1530 1530 1531 1531 1531 1531 1531 1532 1532 1532
1531 1530 1529 1528 1528 1528 1528 1527 1527 1527 1527 1528 1528 1528 1528 1528 1528 1528 1528 1529 1529 1529 1529 1529 1529 1529 1530 1530 1530 1530 1531 1531 1531 1532 1533 1534 1533 1533 1533 1533 1533 1533 1534
1532 1531 1530 1529 1529 1529 1528 1528 1528 1528 1529 1529 1529 1529 1529 1530 1530 1530 1530 1530 1530 1530 1530 1531 1531 1531 1531 1531 1532 1532 1532 1533 1533 1534 1534 1534 1534 1534 1534 1534 1534 1535 1535
1533 1533 1532 1531 1530 1529 1528 1527 1527 1528 1529 1530 1530 1531 1531 1531 1531 1531 1532 1532 1532 1532 1532 1532 1532 1533 1533 1533 1533 1534 1534 1534 1535 1536 1536 1536 1536 1536 1535 1535 1535 1536 1536
1535 1534 1533 1532 1531 1530 1528 1525 1525 1527 1530 1531 1532 1532 1533 1533 1533 1533 1533 1533 1533 1534 1534 1534 1534 1534 1534 1535 1535 1536 1536 1536 1537 1537 1537 1537 1537 1537 1537 1537 1536 1536 1536
1536 1536 1535 1533 1532 1531 1529 1527 1525 1528 1531 1532 1533 1534 1534 1534 1535 1535 1535 1535 1535 1535 1535 1535 1535 1536 1536 1536 1537 1537 1537 1538 1539 1539 1539 1539 1538 1538 1538 1537 1537 1537 1537
1537 1537 1536 1536 1535 1533 1532 1531 1530 1531 1533 1534 1535 1535 1536 1536 1536 1536 1536 1536 1536 1536 1536 1536 1537 1537 1537 1538 1538 1539 1539 1539 1540 1541 1541 1540 1539 1539 1539 1538 1538 1538 1538
1538 1538 1538 1538 1537 1537 1536 1534 1534 1535 1535 1536 1536 1537 1537 1538 1538 1538 1538 1538 1538 1538 1538 1538 1538 1538 1539 1539 1540 1540 1541 1541 1542 1542 1542 1542 1541 1540 1540 1540 1539 1539 1538
1539 1539 1539 1539 1539 1538 1538 1537 1537 1537 1538 1538 1538 1538 1539 1540 1540 1540 1539 1539 1539 1539 1539 1539 1540 1540 1541 1541 1542 1542 1543 1544 1544 1544 1543 1543 1542 1542 1541 1541 1541 1540 1540
1540 1541 1540 1540 1540 1540 1540 1540 1540 1540 1540 1540 1541 1541 1541 1541 1541 1541 1541 1541 1541 1540 1540 1541 1541 1542 1543 1544 1544 1544 1545 1545 1546 1545 1545 1544 1544 1543 1543 1542 1542 1541 1541
1541 1541 1541 1541 1541 1541 1541 1541 1541 1541 1541 1542 1542 1542 1542 1542 1543 1543 1543 1542 1542 1542 1542 1542 1543 1544 1544 1544 1545 1546 1546 1547 1547 1547 1546 1546 1545 1545 1544 1544 1543 1542 1542
1541 1542 1542 1542 1542 1543 1543 1542 1543 1543 1543 1543 1543 1544 1544 1544 1544 1544 1544 1543 1543 1543 1543 1544 1544 1545 1545 1546 1547 1547 1548 1548 1548 1548 1547 1547 1547 1546 1545 1545 1544 1543 1543
1542 1542 1543 1543 1543 1543 1543 1543 1544 1544 1544 1544 1544 1545 1545 1545 1545 1545 1545 1544 1545 1545 1545 1545 1545 1546 1547 1547 1548 1549 1549 1550 1550 1549 1549 1548 1548 1548 1547 1546 1546 1545 1544
1542 1543 1543 1543 1544 1544 1544 1544 1545 1545 1545 1545 1545 1546 1546 1546 1546 1546 1546 1546 1546 1546 1546 1546 1547 1547 1547 1548 1549 1549 1550 1550 1551 1551 1551 1550 1549 1549 1548 1548 1547 1547 1546
1542 1543 1543 1544 1544 1545 1545 1545 1545 1545 1546 1546 1546 1547 1547 1547 1547 1547 1547 1547 1547 1547 1547 1548 1548 1548 1549 1549 1550 1550 1551 1551 1551 1552 1551 1551 1551 1550 1549 1549 1548 1548 1547
1542 1543 1543 1544 1545 1545 1545 1545 1546 1546 1546 1546 1546 1547 1547 1547 1548 1547 1547 1548 1547 1548 1548 1548 1549 1549 1550 1551 1551 1551 1552 1552 1552 1552 1552 1552 1551 1551 1550 1550 1549 1549 1548
1541 1543 1543 1544 1545 1545 1545 1546 1546 1546 1546 1546 1547 1547 1547 1548 1548 1548 1548 1548 1548 1548 1549 1549 1550 1550 1551 1551 1551 1552 1552 1552 1552 1553 1553 1553 1552 1551 1551 1550 1549 1549 1548
1540 1542 1543 1544 1544 1545 1545 1546 1546 1546 1546 1546 1547 1547 1547 1548 1548 1548 1548 1548 1549 1549 1549 1550 1549 1550 1550 1551 1552 1552 1552 1553 1553 1553 1553 1552 1552 1552 1551 1551 1550 1549 1548
1539 1541 1542 1543 1544 1544 1545 1545 1545 1546 1546 1546 1546 1547 1547 1547 1547 1548 1548 1548 1548 1549 1549 1550 1550 1550 1551 1551 1552 1553 1553 1553 1553 1553 1553 1553 1552 1551 1551 1551 1550 1550 1549
1537 1539 1540 1541 1542 1543 1543 1544 1545 1545 1546 1546 1545 1546 1546 1546 1547 1547 1548 1548 1548 1548 1549 1549 1550 1550 1551 1551 1552 1552 1553 1555 1553 1553 1552 1552 1552 1551 1551 1551 1550 1550 1549
1535 1537 1538 1540 1541 1541 1542 1543 1543 1544 1544 1545 1545 1545 1545 1545 1546 1546 1547 1547 1547 1548 1548 1548 1549 1549 1550 1551 1551 1553 1553 1552 1553 1553 1552 1552 1551 1551 1551 1550 1550 1549 1549
1532 1534 1536 1537 1539 1539 1540 1541 1542 1542 1543 1543 1544 1543 1544 1544 1544 1545 1545 1546 1546 1547 1547 1548 1548 1549 1549 1550 1550 1550 1552 1552 1552 1552 1553 1552 1551 1550 1550 1549 1549 1549 1548
1530 1531 1533 1534 1536 1537 1538 1539 1540 1541 1541 1542 1542 1542 1543 1543 1543 1543 1544 1544 1545 1545 1546 1546 1547 1548 1548 1549 1550 1550 1550 1550 1551 1551 1551 1551 1550 1550 1549 1549 1548 1548 1547
1527 1528 1529 1531 1533 1534 1535 1536 1537 1538 1539 1539 1540 1540 1541 1541 1541 1542 1542 1542 1543 1543 1544 1545 1545 1546 1547 1547 1548 1549 1549 1549 1550 1550 1550 1549 1549 1549 1548 1547 1547 1546 1546